Honolulu, HI

12:41 PM HST on December 13, 2017 (GMT -1000)
Honolulu International

Weather History for PHNL - April, 2012

Change the Weather History Date:

Wednesday, April 25, 2012

  Actual Average Record
Temperature  
Mean Temperature 75 °F 76 °F  
Max Temperature 81 °F 83 °F 90 °F (1996)
Min Temperature 69 °F 70 °F 64 °F (1974)
Degree Days  
Heating Degree Days 0 0  
Month to date heating degree days 0 0  
Since 1 July heating degree days 0 0  
Cooling Degree Days 10 11  
Month to date cooling degree days 276 275  
Year to date cooling degree days 1117 1050  
Growing Degree Days 24 (Base 50)    
Moisture  
Dew Point 61 °F    
Average Humidity 64    
Maximum Humidity 78    
Minimum Humidity 49    
Precipitation  
Precipitation T in 0.02 in 0.96 in (1962)
Month to date precipitation 0.24 0.56  
Year to date precipitation 7.44 6.88  
Snow  
Snow 0.00 in - - ()
Month to date snowfall 0.0  
Since 1 July snowfall 0.0  
Snow Depth 0.00 in    
Sea Level Pressure  
Sea Level Pressure 30.09 in    
Wind  
Wind Speed 11 mph (ENE)    
Max Wind Speed 18 mph    
Max Gust Speed 25 mph    
Visibility 10 miles    
Events Rain    
T = Trace of Precipitation, MM = Missing Value Source: NWS Daily Summary

Daily Weather History Graph

Daily Weather History Graph

Search for Another Location

Airport or City:

Trip Planner

Search our weather history database for the weather conditions in past years. The results will help you decide how hot, cold, wet, or windy it might be!

Date:

Astronomy

Apr. 25, 2012 Rise Set
Actual Time 6:04 AM HST 6:54 PM HST
Civil Twilight 5:41 AM HST 7:17 PM HST
Nautical Twilight 5:14 AM HST 7:45 PM HST
Astronomical Twilight 4:46 AM HST 8:12 PM HST
Moon 9:17 AM HST (4/25) 10:53 PM HST (4/25)
Length of Visible Light 13h 36m
Length of Day
12h 50m
Waxing Crescent, 18% of the Moon is Illuminated
Apr 25
Waxing Crescent
Apr 28
First Quarter
May 5
Full
May 12
Last Quarter
May 20
New

Hourly Weather History & Observations

Time (HST) Temp. Heat Index Dew Point Humidity Pressure Visibility Wind Dir Wind Speed Gust Speed Precip Events Conditions
12:53 AM 73.0 °F - 59.0 °F 61% 30.12 in 10.0 mi ENE 11.5 mph - N/A   Mostly Cloudy
1:53 AM 73.0 °F - 59.0 °F 61% 30.11 in 10.0 mi ENE 11.5 mph - N/A   Overcast
2:53 AM 72.0 °F - 62.1 °F 71% 30.09 in 9.0 mi ENE 11.5 mph 19.6 mph 0.00 in Rain Light Rain
3:53 AM 71.1 °F - 62.1 °F 73% 30.09 in 10.0 mi ENE 8.1 mph - 0.00 in   Mostly Cloudy
4:53 AM 69.1 °F - 63.0 °F 81% 30.10 in 10.0 mi NE 4.6 mph - 0.00 in Rain Light Rain
5:53 AM 69.1 °F - 62.1 °F 78% 30.09 in 10.0 mi ENE 9.2 mph - 0.00 in   Mostly Cloudy
6:53 AM 71.1 °F - 61.0 °F 70% 30.11 in 10.0 mi ENE 11.5 mph - N/A   Mostly Cloudy
7:53 AM 73.9 °F - 60.1 °F 62% 30.12 in 10.0 mi ENE 12.7 mph - N/A   Mostly Cloudy
8:53 AM 73.9 °F - 61.0 °F 64% 30.13 in 10.0 mi East 9.2 mph - N/A   Scattered Clouds
9:53 AM 77.0 °F - 61.0 °F 58% 30.13 in 10.0 mi ENE 13.8 mph - N/A   Scattered Clouds
10:53 AM 80.1 °F 80.9 °F 60.1 °F 50% 30.12 in 10.0 mi East 13.8 mph 20.7 mph N/A   Scattered Clouds
11:53 AM 81.0 °F 81.6 °F 60.1 °F 49% 30.10 in 10.0 mi East 16.1 mph 23.0 mph N/A   Scattered Clouds
12:53 PM 80.1 °F 80.7 °F 59.0 °F 48% 30.08 in 10.0 mi East 8.1 mph 21.9 mph N/A   Scattered Clouds
1:53 PM 80.1 °F 81.2 °F 62.1 °F 54% 30.06 in 10.0 mi NE 8.1 mph - N/A   Scattered Clouds
2:53 PM 79.0 °F - 61.0 °F 54% 30.06 in 10.0 mi ENE 12.7 mph 18.4 mph N/A   Mostly Cloudy
3:53 PM 79.0 °F - 61.0 °F 54% 30.05 in 10.0 mi NE 11.5 mph - N/A   Mostly Cloudy
4:53 PM 79.0 °F - 62.1 °F 56% 30.05 in 10.0 mi ENE 13.8 mph - N/A   Mostly Cloudy
5:53 PM 77.0 °F - 62.1 °F 60% 30.06 in 10.0 mi ENE 12.7 mph - N/A   Scattered Clouds
6:53 PM 73.9 °F - 63.0 °F 68% 30.07 in 10.0 mi East 11.5 mph - N/A   Scattered Clouds
7:53 PM 73.0 °F - 63.0 °F 71% 30.08 in 10.0 mi NE 5.8 mph - N/A   Mostly Cloudy
8:53 PM 73.0 °F - 63.0 °F 71% 30.10 in 10.0 mi ENE 4.6 mph - N/A   Mostly Cloudy
9:53 PM 73.0 °F - 63.0 °F 71% 30.11 in 10.0 mi ENE 11.5 mph - N/A   Partly Cloudy
10:53 PM 73.0 °F - 64.0 °F 73% 30.11 in 10.0 mi ENE 10.4 mph - N/A   Mostly Cloudy
11:53 PM 72.0 °F - 64.0 °F 76% 30.10 in 10.0 mi ESE 4.6 mph - 0.00 in Rain Light Rain